Regional Weather Roundup
Issued by NWS Albany, NY

Current Version | Previous Version | Graphics & Text | Print | Product List | Glossary Off
Versions: 1 2 3 4 5 6 7 8 9 10 11 12 13 14 15 16 17 18 19 20 21 22 23 24 25 26 27 28 29 30 31 32 33 34 35 36 37 38 39 40 41 42 43 44 45 46 47 48 49 50

000
ASUS41 KALY 250810
RWRALY

NEW YORK STATE HOURLY WEATHER ROUNDUP
NATIONAL WEATHER SERVICE ALBANY NY
400 AM EDT MON MAY 25 2015

NOTE: "FAIR" INDICATES FEW OR NO CLOUDS BELOW 12,000 FEET WITH NO
SIGNIFICANT WEATHER AND/OR NO OBSTRUCTIONS TO VISIBILITY.

NYZ032-033-038>043-046>054-057>066-NYZ062>081-250900-
EAST


CITY           SKY/WX    TMP DP  RH WIND       PRES   REMARKS
ALBANY         CLOUDY    63  44  50 S5        30.20R
GLENS FALLS    CLOUDY    62  43  49 S6        30.19
POUGHKEEPSIE   MOCLDY    58  52  80 CALM      30.23R
NEWBURGH       CLEAR     61  52  72 CALM      30.25R
MONTGOMERY     CLOUDY    57  52  83 CALM      30.24R
WHITE PLAINS   PTCLDY    60  51  72 CALM      30.25S
ISLIP          CLEAR     57  53  86 SW6       30.25S
NEW YORK CITY  PTCLDY    65  51  60 S6        30.25S
CENTRAL PARK   CLEAR     65  52  62 W6        30.28S
$$

NYZ005>009-017-018-044>046-055-056-250900-
CENTRAL


CITY           SKY/WX    TMP DP  RH WIND       PRES   REMARKS
FULTON         LGT RAIN  60  53  77 VRB3      30.18R
SYRACUSE       LGT RAIN  62  50  64 N3        30.17R
ROME           CLOUDY    57  48  72 CALM      30.19S
ELMIRA         CLOUDY    57  52  83 CALM      30.21S
BINGHAMTON     CLOUDY    63  46  54 SW6       30.23R
MONTICELLO     CLOUDY    54  45  71 CALM      30.28R
$$

NYZ026>034-041>043-250900-
NORTH


CITY           SKY/WX    TMP DP  RH WIND       PRES   REMARKS
WATERTOWN      CLOUDY    60  52  74 CALM      30.15R
FORT DRUM      NOT AVBL
MASSENA        CLOUDY    63  45  51 SW8       30.11R
SARANAC LAKE   CLOUDY    51  43  74 S3        30.16R
PLATTSBURGH    CLOUDY    57  44  62 CALM      30.12R
$$

NYZ001>004-010>016-019>021-250900-
WEST


CITY           SKY/WX    TMP DP  RH WIND       PRES   REMARKS
NIAGARA FALLS  CLOUDY    61  53  75 SE5       30.12F
BUFFALO        LGT RAIN  63  54  72 E6        30.14F
DUNKIRK        CLOUDY    72  42  34 S18G24    30.12F
JAMESTOWN      MOCLDY    61  45  55 S6        30.18F
WELLSVILLE     CLOUDY    64  43  46 S5        30.22F
ROCHESTER      LGT RAIN  64  54  69 E5        30.17F
PENN YAN       CLOUDY    63  52  67 SW5       30.20S
$$

             KEY
       WCI = WIND CHILL INDEX
       VSB = VISIBILITY
       HX  = HEAT INDEX
$$


USA.gov is the U.S. government's official web portal to all federal, state and local government web resources and services.